Location: Newark
(30.1000°N, 109.4667°E)
Time: 04:29:36
(UTC+00:00)

SR - Pass Details

Date: 27 February 2020
Orbit: 578 x 878 km, 66.7° (Epoch: 04 April)

Event Time Altitude Azimuth Distance (km) Brightness Sun altitude
Rises 07:00:24 0° 227° (SW) 3,423 ? 41.0°
Reaches altitude 10° 07:03:04 10° 236° (SW) 2,508 ? 40.6°
Maximum altitude 07:08:23 35° 301° (WNW) 1,379 ? 39.8°
Drops below altitude 10° 07:13:42 10° 6° (N) 2,511 ? 39.0°
Sets 07:16:24 0° 15° (NNE) 3,429 ? 38.6°
